SCP
-0 -0 0 0 0 0 0 -0 0 -0 0 0 0 0 0 0 0 0 0 0 0 -0 -0 0 0 0 0 0 0 0 0 0 0
0 -0 0 0 0 0 -0 0 0 0 0 0 0 0 0 0 0 0 0 0 0 0 0 0 0 0 -0 0 0 0 0 0 0
-0 0 0 0 0 0 0 0 0 0 0 0 0 0 0 0 0 0 1 1 0 0 0 0 0 0 0 0 0 0 0 0 0
-0 0 0 0 0 0 0 0 0 1 0 0 0 0 0 0 0 0 0 0 0 -0 0 0 0 0 0 0 0 0 0 0 0
0 0 0 1 0 1 0 0 1 1 1 1 0 0 0 0 0 0 0 0 0 0 0 0 0 0 0 -0 0 0 0 0 0
0 0 0 1 1 1 1 1 1 2 1 1 0 0 0 0 0 0 0 0 0 0 0 0 0 0 0 0 0 0 0 0 0
0 0 -0 0 0 0 0 0 0 3 2 1 1 0 0 0 1 0 0 1 0 0 1 1 0 0 0 0 0 0 0 0 0
0 0 0 -0 0 0 0 0 0 0 1 1 2 1 1 1 1 1 1 1 1 1 1 0 0 0 0 0 0 0 0 0 1
1 0 0 0 0 -0 0 0 -0 0 -0 0 1 3 2 2 1 2 2 1 1 1 1 1 1 1 0 1 0 0 0 1 1
0 0 0 0 0 0 -0 -0 0 0 0 0 0 0 2 3 2 2 2 1 1 1 1 1 1 1 0 0 1 0 0 0 1
0 0 0 0 0 0 0 0 -0 -0 0 1 1 1 1 2 2 2 1 1 1 1 1 1 1 1 1 1 1 0 0 0 1
0 0 0 0 0 0 0 0 -0 -0 -0 0 0 0 1 1 2 2 2 1 2 2 1 1 1 1 1 1 0 0 0 0 1
0 0 0 0 0 0 0 0 0 0 -0 0 -0 0 0 0 1 1 1 2 1 2 2 1 1 1 1 0 0 0 0 0 0
0 0 0 0 0 0 0 0 0 0 0 0 0 0 0 0 0 1 0 0 0 0 0 0 0 0 0 0 0 0 0 0 0
0 0 0 0 0 0 0 0 0 0 0 0 0 0 0 0 0 0 0 0 0 0 0 0 0 0 0 0 0 0 0 0 0
0 0 0 0 0 0 0 0 0 0 0 0 0 0 0 0 0 0 0 0 0 0 0 0 0 0 0 0 0 0 0 0 0
0 0 0 0 0 0 0 0 0 0 0 0 0 0 0 0 0 0 0 0 0 0 0 0 0 0 0 0 0 0 0 0 0
0 0 0 0 0 0 0 0 0 0 0 0 0 0 0 0 0 0 0 0 0 0 0 0 0 0 0 0 0 0 0 0 0
0 0 0 0 0 0 0 0 0 0 0 0 0 0 0 0 0 0 0 0 0 0 0 0 0 0 0 0 0 0 0 0 0
0 0 0 0 0 0 0 0 0 0 0 0 0 0 0 0 0 0 0 0 0 0 0 0 0 0 0 0 0 0 0 0 0
Wind_Speed_500mb
75 71 48 40 69 68 48 61 59 54 47 34 47 49 45 46 44 33 32 28 23 29 31 19 35 24 17 17 11 11 22 25 12
64 67 56 69 70 79 74 68 63 58 50 38 39 46 49 47 45 37 28 26 25 29 13 19 23 19 12 16 16 19 20 16 21
61 54 57 39 51 66 74 71 62 54 52 42 38 45 44 44 43 51 38 35 30 32 19 26 26 25 20 21 23 24 27 21 15
58 55 70 63 70 50 60 57 72 59 49 43 42 48 49 41 38 33 40 39 30 45 34 27 23 33 35 28 31 26 33 28 34
20 19 38 39 58 61 56 53 70 62 57 53 42 47 52 49 43 36 37 32 39 34 39 44 41 23 28 30 27 27 33 34 35
9 4 9 30 39 44 54 36 70 56 62 58 48 52 52 50 48 44 43 42 34 28 27 30 31 33 34 31 31 32 37 36 32
18 7 5 13 30 18 30 15 24 48 59 61 58 57 54 50 49 44 41 39 35 41 33 31 26 31 34 35 33 35 36 33 34
8 10 1 7 26 14 23 11 8 49 42 38 58 55 55 54 49 45 40 40 37 32 33 34 32 30 34 31 29 34 33 34 38
20 11 4 6 12 5 33 59 83 64 32 23 37 57 54 46 46 44 49 48 45 45 43 46 42 32 30 34 32 33 30 35 35
8 13 15 7 15 23 13 14 46 48 18 17 44 16 49 35 43 46 48 47 47 45 44 41 43 43 42 44 42 40 37 37 39
11 6 14 26 36 29 24 18 20 23 27 26 29 39 28 27 32 32 35 40 40 40 42 42 43 43 42 44 47 44 41 42 46
14 10 10 20 23 25 18 23 18 12 14 12 33 46 32 31 35 33 29 32 30 28 32 38 45 47 47 45 45 46 46 43 39
13 12 9 9 1 11 18 29 29 18 20 27 33 41 53 35 36 26 27 28 29 27 24 22 32 39 46 51 62 57 56 51 41
12 11 7 5 1 3 7 15 18 20 21 24 24 20 29 40 30 30 29 18 7 11 20 29 30 36 41 43 47 49 52 46 46
10 8 6 8 7 8 11 6 8 10 12 17 16 16 21 39 26 22 18 10 12 30 33 42 44 44 41 44 49 52 54 58 49
13 9 6 4 8 10 9 5 4 10 8 9 4 16 24 18 8 13 16 18 31 29 30 39 35 29 24 23 27 32 40 47 44
13 12 9 6 6 12 9 6 3 5 5 2 7 19 25 20 19 20 29 23 23 19 14 8 5 5 4 8 14 16 17 18 21
9 7 7 5 9 14 15 11 7 6 13 12 17 21 23 24 20 18 18 20 21 21 16 8 8 8 5 3 2 5 1 11 12
9 5 5 6 9 11 11 13 14 12 12 12 18 19 20 18 12 10 12 16 17 15 14 12 11 11 13 14 12 10 10 8 7
7 9 6 5 7 5 7 10 10 12 15 15 12 9 13 11 10 11 12 12 10 10 12 8 8 13 15 14 13 12 9 11 8
Wind_Direction_500mb
200 210 215 218 198 182 177 179 178 183 197 205 197 191 203 195 207 202 204 179 202 225 223 235 225 230 253 247 232 270 238 228 255
203 213 204 194 189 189 181 191 181 184 196 200 203 201 204 207 203 197 204 213 214 229 247 250 179 221 243 228 219 237 263 251 227
211 199 206 216 173 185 183 179 182 188 199 200 198 201 216 210 204 206 202 211 216 195 224 243 224 209 221 234 231 239 252 251 229
181 190 196 202 203 188 197 195 173 182 190 190 194 199 211 210 215 217 214 214 220 215 215 216 240 234 240 234 231 228 245 245 228
172 170 210 201 203 203 222 200 184 184 188 196 199 199 206 206 215 214 217 229 229 227 228 231 234 228 228 234 236 228 240 251 244
103 121 153 169 178 192 198 240 182 190 191 197 196 196 201 208 208 211 215 230 221 237 238 237 244 241 239 241 236 235 241 253 250
139 142 193 226 192 185 190 140 164 191 190 196 196 192 201 199 207 211 213 224 232 235 240 255 252 238 238 252 251 245 247 256 260
130 142 194 133 203 223 227 276 302 299 215 187 199 197 196 201 204 210 214 222 228 232 237 248 250 252 247 251 258 255 257 250 257
66 104 172 108 91 179 264 259 257 281 301 209 205 186 203 201 206 211 218 224 229 230 231 240 248 244 245 255 255 244 253 256 262
59 85 97 114 107 108 194 218 246 266 271 256 258 232 188 196 197 209 222 222 226 232 236 237 239 243 242 242 251 245 246 245 253
99 165 134 147 161 163 176 186 211 253 229 208 212 239 232 208 210 217 227 231 236 237 241 243 247 251 255 252 253 253 247 250 253
93 97 144 197 198 213 238 247 237 236 257 282 247 232 218 216 222 224 224 233 229 239 251 252 252 257 257 253 255 258 252 251 259
100 92 81 88 321 260 236 249 254 258 267 278 289 244 233 226 211 204 218 228 232 238 254 269 266 261 261 255 260 262 249 255 270
103 87 74 65 86 279 261 248 251 271 278 269 265 238 241 224 210 204 207 223 225 290 287 269 269 266 265 270 262 256 252 257 260
108 98 56 35 357 328 313 308 228 236 281 276 262 254 242 219 207 214 195 257 285 305 289 296 287 270 261 262 265 269 266 261 248
115 96 84 28 27 347 346 347 215 231 237 263 211 205 207 151 165 246 229 230 285 294 273 278 280 268 263 272 270 268 272 261 257
97 88 58 19 37 15 13 11 246 225 224 72 152 168 184 199 203 206 258 236 247 231 205 218 262 255 245 307 302 283 260 253 265
114 35 55 50 51 45 45 44 48 174 155 155 156 157 167 172 175 174 181 182 188 178 175 187 177 207 188 138 312 290 194 218 251
97 70 58 58 50 57 60 65 77 116 173 179 165 159 163 168 176 166 181 190 185 186 197 229 225 238 250 246 263 271 259 227 226
117 105 117 36 64 51 83 79 74 100 114 123 144 169 165 170 170 173 168 176 178 191 205 214 225 212 225 220 238 242 251 269 244
Wind_Speed_850mb
75 71 48 40 69 68 48 61 59 54 47 34 47 49 45 46 44 33 32 28 23 29 31 19 35 24 17 17 11 11 22 25 12
64 67 56 69 70 79 74 68 63 58 50 38 39 46 49 47 45 37 28 26 25 29 13 19 23 19 12 16 16 19 20 16 21
61 54 57 39 51 66 74 71 62 54 52 42 38 45 44 44 43 51 38 35 30 32 19 26 26 25 20 21 23 24 27 21 15
58 55 70 63 70 50 60 57 72 59 49 43 42 48 49 41 38 33 40 39 30 45 34 27 23 33 35 28 31 26 33 28 34
20 19 38 39 58 61 56 53 70 62 57 53 42 47 52 49 43 36 37 32 39 34 39 44 41 23 28 30 27 27 33 34 35
9 4 9 30 39 44 54 36 70 56 62 58 48 52 52 50 48 44 43 42 34 28 27 30 31 33 34 31 31 32 37 36 32
18 7 5 13 30 18 30 15 24 48 59 61 58 57 54 50 49 44 41 39 35 41 33 31 26 31 34 35 33 35 36 33 34
8 10 1 7 26 14 23 11 8 49 42 38 58 55 55 54 49 45 40 40 37 32 33 34 32 30 34 31 29 34 33 34 38
20 11 4 6 12 5 33 59 83 64 32 23 37 57 54 46 46 44 49 48 45 45 43 46 42 32 30 34 32 33 30 35 35
8 13 15 7 15 23 13 14 46 48 18 17 44 16 49 35 43 46 48 47 47 45 44 41 43 43 42 44 42 40 37 37 39
11 6 14 26 36 29 24 18 20 23 27 26 29 39 28 27 32 32 35 40 40 40 42 42 43 43 42 44 47 44 41 42 46
14 10 10 20 23 25 18 23 18 12 14 12 33 46 32 31 35 33 29 32 30 28 32 38 45 47 47 45 45 46 46 43 39
13 12 9 9 1 11 18 29 29 18 20 27 33 41 53 35 36 26 27 28 29 27 24 22 32 39 46 51 62 57 56 51 41
12 11 7 5 1 3 7 15 18 20 21 24 24 20 29 40 30 30 29 18 7 11 20 29 30 36 41 43 47 49 52 46 46
10 8 6 8 7 8 11 6 8 10 12 17 16 16 21 39 26 22 18 10 12 30 33 42 44 44 41 44 49 52 54 58 49
13 9 6 4 8 10 9 5 4 10 8 9 4 16 24 18 8 13 16 18 31 29 30 39 35 29 24 23 27 32 40 47 44
13 12 9 6 6 12 9 6 3 5 5 2 7 19 25 20 19 20 29 23 23 19 14 8 5 5 4 8 14 16 17 18 21
9 7 7 5 9 14 15 11 7 6 13 12 17 21 23 24 20 18 18 20 21 21 16 8 8 8 5 3 2 5 1 11 12
9 5 5 6 9 11 11 13 14 12 12 12 18 19 20 18 12 10 12 16 17 15 14 12 11 11 13 14 12 10 10 8 7
7 9 6 5 7 5 7 10 10 12 15 15 12 9 13 11 10 11 12 12 10 10 12 8 8 13 15 14 13 12 9 11 8
Wind_Direction_850mb
200 210 215 218 198 182 177 179 178 183 197 205 197 191 203 195 207 202 204 179 202 225 223 235 225 230 253 247 232 270 238 228 255
203 213 204 194 189 189 181 191 181 184 196 200 203 201 204 207 203 197 204 213 214 229 247 250 179 221 243 228 219 237 263 251 227
211 199 206 216 173 185 183 179 182 188 199 200 198 201 216 210 204 206 202 211 216 195 224 243 224 209 221 234 231 239 252 251 229
181 190 196 202 203 188 197 195 173 182 190 190 194 199 211 210 215 217 214 214 220 215 215 216 240 234 240 234 231 228 245 245 228
172 170 210 201 203 203 222 200 184 184 188 196 199 199 206 206 215 214 217 229 229 227 228 231 234 228 228 234 236 228 240 251 244
103 121 153 169 178 192 198 240 182 190 191 197 196 196 201 208 208 211 215 230 221 237 238 237 244 241 239 241 236 235 241 253 250
139 142 193 226 192 185 190 140 164 191 190 196 196 192 201 199 207 211 213 224 232 235 240 255 252 238 238 252 251 245 247 256 260
130 142 194 133 203 223 227 276 302 299 215 187 199 197 196 201 204 210 214 222 228 232 237 248 250 252 247 251 258 255 257 250 257
66 104 172 108 91 179 264 259 257 281 301 209 205 186 203 201 206 211 218 224 229 230 231 240 248 244 245 255 255 244 253 256 262
59 85 97 114 107 108 194 218 246 266 271 256 258 232 188 196 197 209 222 222 226 232 236 237 239 243 242 242 251 245 246 245 253
99 165 134 147 161 163 176 186 211 253 229 208 212 239 232 208 210 217 227 231 236 237 241 243 247 251 255 252 253 253 247 250 253
93 97 144 197 198 213 238 247 237 236 257 282 247 232 218 216 222 224 224 233 229 239 251 252 252 257 257 253 255 258 252 251 259
100 92 81 88 321 260 236 249 254 258 267 278 289 244 233 226 211 204 218 228 232 238 254 269 266 261 261 255 260 262 249 255 270
103 87 74 65 86 279 261 248 251 271 278 269 265 238 241 224 210 204 207 223 225 290 287 269 269 266 265 270 262 256 252 257 260
108 98 56 35 357 328 313 308 228 236 281 276 262 254 242 219 207 214 195 257 285 305 289 296 287 270 261 262 265 269 266 261 248
115 96 84 28 27 347 346 347 215 231 237 263 211 205 207 151 165 246 229 230 285 294 273 278 280 268 263 272 270 268 272 261 257
97 88 58 19 37 15 13 11 246 225 224 72 152 168 184 199 203 206 258 236 247 231 205 218 262 255 245 307 302 283 260 253 265
114 35 55 50 51 45 45 44 48 174 155 155 156 157 167 172 175 174 181 182 188 178 175 187 177 207 188 138 312 290 194 218 251
97 70 58 58 50 57 60 65 77 116 173 179 165 159 163 168 176 166 181 190 185 186 197 229 225 238 250 246 263 271 259 227 226
117 105 117 36 64 51 83 79 74 100 114 123 144 169 165 170 170 173 168 176 178 191 205 214 225 212 225 220 238 242 251 269 244